Flag for Hong Kong Weather past 2 weeks in Kowloon, Hong Kong

Now
77 °F

Scattered clouds.


Feels Like: 79 °F
Forecast: 78 / 84 °F
Wind: 12 mph from Northeast

Location: National Airport

Current Time: Oct 23, 2014 at 8:49:23 AM

Latest Report: Oct 23, 2014 at 8:00 AM


Visibility: 6 mi

Pressure: 30.04 "Hg

Humidity: 74%

Dew point: 68 °F

Location of KowloonLocation

Historic Weather in Kowloon — Graph

°F

Kowloon temperature yesterday

Maximum temperature yesterday: 90 °F (at 2:00 PM)
Minimum temperature yesterday: 79 °F (at 11:30 PM)
Average temperature yesterday: 84 °F

Past Weeks' High & Low Weather Summary

 TemperatureHumidityPressure
High90 °F (Oct 21, 3:30 PM)83% (Oct 23, 1:30 AM)30.09 "Hg (Oct 23, 1:30 AM)
Low73 °F (Oct 15, 4:00 AM)35% (Oct 8, 1:30 PM)29.77 "Hg (Oct 9, 3:00 PM)
Average81 °F56%29.97 "Hg
* Reported Oct 8 7:00 AM — Oct 23 7:30 AM, Kowloon, Weather by CustomWeather, © 2014

Note: Actual official high and low records may vary slightly from our data, if they occured in-between our weather recording intervals... More about our weather records

Advertising

Kowloon weather history for previous 24 hours

 ConditionsComfort  
Time TempWeatherWind HumidityBarometerVisibility
7:30 AM
Oct 23
77 °FPassing clouds.10 mph79%30.04 "Hg6 mi
7:00 AM77 °FPassing clouds.9 mph74%30.01 "Hg6 mi
6:30 AM77 °FScattered clouds.14 mph74%30.01 "Hg6 mi
6:00 AM75 °FPassing clouds.15 mph74%30.01 "Hg6 mi
5:30 AM77 °FPassing clouds.13 mph74%29.98 "Hg6 mi
5:00 AM75 °FPassing clouds.13 mph78%29.98 "Hg6 mi
4:30 AM75 °FPassing clouds.15 mph83%29.98 "Hg6 mi
4:00 AM77 °FPassing clouds.15 mph79%29.98 "Hg6 mi
3:30 AM75 °FPassing clouds.15 mph83%29.98 "Hg6 mi
3:00 AM77 °FPassing clouds.13 mph79%29.98 "Hg6 mi
2:30 AM77 °FSprinkles. Passing clouds.12 mph83%29.98 "Hg6 mi
2:00 AM79 °FPassing clouds.8 mph79%29.98 "Hg5 mi
1:30 AM77 °FSprinkles. Passing clouds.8 mph83%29.98 "Hg5 mi
1:00 AM79 °FSprinkles. Passing clouds.7 mph74%30.01 "Hg6 mi
12:30 AM77 °FSprinkles. Passing clouds.8 mph79%30.01 "Hg6 mi
12:00 AM79 °FSprinkles. Passing clouds.8 mph70%30.01 "Hg6 mi
11:30 PM
Oct 22
79 °FSprinkles. Passing clouds.14 mph74%30.01 "HgN/A
11:00 PM81 °FPassing clouds.12 mph66%30.01 "HgN/A
10:30 PM82 °FPassing clouds.9 mph58%30.01 "HgN/A
10:00 PM82 °FPassing clouds.10 mph58%30.01 "HgN/A
9:30 PM84 °FPassing clouds.9 mph51%30.01 "HgN/A
9:00 PM82 °FPassing clouds.10 mph58%30.01 "HgN/A
8:30 PM82 °FPassing clouds.9 mph58%30.01 "HgN/A
8:00 PM82 °FPassing clouds.10 mph58%29.98 "HgN/A
7:30 PM84 °FPassing clouds.12 mph51%29.98 "HgN/A
7:00 PM86 °FPassing clouds.10 mph49%29.98 "HgN/A
6:30 PM86 °FPassing clouds.14 mph49%29.95 "HgN/A
6:00 PM86 °FPassing clouds.14 mph49%29.95 "HgN/A
5:30 PM86 °FPassing clouds.9 mph49%29.95 "HgN/A
5:00 PM86 °FPassing clouds.13 mph49%29.95 "HgN/A
4:30 PM88 °FPassing clouds.14 mph46%29.95 "HgN/A
4:00 PM88 °FPassing clouds.13 mph46%29.95 "HgN/A
3:30 PM88 °FPassing clouds.13 mph43%29.95 "HgN/A
3:00 PM88 °FPassing clouds.15 mph43%29.95 "HgN/A
2:30 PM90 °FSunny.13 mph41%29.95 "Hg10 mi
2:00 PM90 °FSunny.14 mph41%29.95 "Hg10 mi
1:30 PM88 °FClear.12 mph43%29.95 "Hg6 mi
1:00 PM86 °FClear.8 mph46%29.98 "Hg5 mi
12:30 PM88 °FClear.13 mph46%29.98 "Hg5 mi
12:00 PM88 °FClear.12 mph46%30.01 "Hg5 mi
11:30 AM86 °FClear.12 mph49%30.01 "Hg5 mi
11:00 AM86 °FClear.12 mph46%30.01 "Hg6 mi
10:30 AM86 °FClear.12 mph46%30.04 "Hg6 mi
10:00 AM84 °FClear.9 mph51%30.04 "Hg6 mi
9:30 AM84 °FPassing clouds.13 mph48%30.04 "Hg6 mi
9:00 AM84 °FPassing clouds.9 mph48%30.04 "HgN/A
8:30 AM82 °FPassing clouds.10 mph55%30.04 "HgN/A
8:00 AM82 °FPassing clouds.8 mph55%30.01 "HgN/A
Weather by CustomWeather, © 2014

See weather overviewHow to use our weather pages